User: anonymous   Login
Location: Caltech
(34.1382°N, 118.1253°W)
Time: 20:12:02
(UTC-08:00)
Language:

Cosmos 2237 Rocket - Orbit

View from above orbital plane
View from above orbital plane
View from above satellite
View from above satellite

Ground track
Ground track

The orbit data is extracted from the following two-line orbital elements,

1 22566U 93016B   18055.87029667  .00000284  00000-0  17154-3 0  9999
2 22566  71.0054 256.5208 0008422 114.5608 245.6393 14.14957366287015
Epoch (UTC): 24 February 2018 20:53:13
Eccentricity: 0.0008422
inclination: 71.0054°
perigee height: 836 km
apogee height: 848 km
right ascension of ascending node: 256.5208°
argument of perigee: 114.5608°
revolutions per day: 14.14957366
mean anomaly at epoch: 245.6393°
orbit number at epoch: 28701

The dashed part of the orbit path shows where the satellite is in the earth's shadow,  

DLR